Location: Unspecified
(17.6330°N, 0.0000°E)
Time: 03:14:57
(UTC+00:00)

A-11 Canister half - Pass Details

Date: 21 June 2019
Orbit: 1514 x 1686 km, 47.2° (Epoch: 12 October)

Event Time Altitude Azimuth Distance (km) Brightness Sun altitude
Rises 20:18:13 0° 294° (WNW) 4,666 13.0 -21.7°
Reaches altitude 10° 20:22:11 10° 280° (W) 3,672 11.9 -22.5°
Maximum altitude 20:28:41 22° 234° (SW) 2,853 10.6 -23.7°
Drops below altitude 10° 20:35:14 10° 188° (S) 3,674 10.7 -25.0°
Enters shadow 20:35:25 10° 187° (S) 3,716 10.7 -25.0°
Sets 20:39:15 0° 173° (S) 4,670 - -25.7°
